Regional Weather Roundup
Issued by NWS Goodland, KS

Home | Current Version | Previous Version | Graphics & Text | Print | Product List | Glossary On
Versions: 1 2 3 4 5 6 7 8 9 10 11 12 13 14 15 16 17 18 19 20 21 22 23 24 25 26 27 28 29 30 31 32 33 34 35 36 37 38 39 40 41 42 43 44 45 46 47 48 49 50
278
ASUS43 KGLD 241859
RWRGLD

GOODLAND FORECAST AREA HOURLY WEATHER ROUNDUP
NATIONAL WEATHER SERVICE GOODLAND KS
100 PM MDT FRI MAR 24 2017

...OFFICIAL OBSERVATIONS...

CITY           SKY/WX    TMP DP  RH WIND       PRES   REMARKS
GOODLAND KS    CLOUDY    41  40  96 N23       29.95R
HILL CITY KS   CLOUDY    45  42  89 NE26G32   29.91R
IMPERIAL NEB   LGT RAIN  42  39  89 N30G37    29.99R FOG
MCCOOK NEB     LGT RAIN  42  40  92 NE23      29.96R FOG
AKRON CO       LGT RAIN  41  36  82 N30G39    30.07R
BURLINGTON CO  CLOUDY    39  37  92 N32G38    29.97R
LIMON CO       MIX PCPN  35  35 100 N31G39    30.07R
$$

...UNOFFICIAL OBSERVATIONS...

CITY           SKY/WX    TMP DP  RH WIND       PRES   REMARKS
LENORA KS        N/A     42  32  68 N15         N/A
NORTON KS      CLOUDY    41  36  81 N23G31    29.92R
SHARON SPRINGS   N/A     42  40  94 NE20G26     N/A
TRENTON NEB      N/A     41  32  70 N10         N/A
KIT CARSON CO    N/A     34  31  90 MISG        N/A
YUMA CO        CLOUDY    39  36  87 N31G44    30.03R
$$




USA.gov is the U.S. government's official web portal to all federal, state and local government web resources and services.